<?xml version="1.0"?>
<gpx xmlns="http://www.topografix.com/GPX/1/1" xmlns:xsi="http://www.w3.org/2001/XMLSchema-instance" version="1.1" creator="GPX RubyGem 1.0.0 -- http://dougfales.github.io/gpx/" xsi:schemaLocation="http://www.topografix.com/GPX/1/1 http://www.topografix.com/GPX/1/1/gpx.xsd">
  <metadata>
    <name/>
    <time>2026-05-09T00:41:58+00:00</time>
    <bound minlat="90.0" minlon="180.0" maxlat="-90.0" maxlon="-180.0"/>
  </metadata>
  <trk>
    <name/>
    <trkseg>
      <trkpt lat="43.881079" lon="10.313263">
        <time>1970-01-01T00:00:00+00:00</time>
        <ele>0.0</ele>
      </trkpt>
      <trkpt lat="43.880684" lon="10.314452">
        <time>1970-01-01T00:00:00+00:00</time>
        <ele>-1.0</ele>
      </trkpt>
      <trkpt lat="43.880525" lon="10.314936">
        <time>1970-01-01T00:00:00+00:00</time>
        <ele>-1.0</ele>
      </trkpt>
      <trkpt lat="43.880418" lon="10.315261">
        <time>1970-01-01T00:00:00+00:00</time>
        <ele>0.0</ele>
      </trkpt>
      <trkpt lat="43.880246" lon="10.315788">
        <time>1970-01-01T00:00:00+00:00</time>
        <ele>0.0</ele>
      </trkpt>
      <trkpt lat="43.880196" lon="10.315708">
        <time>1970-01-01T00:00:00+00:00</time>
        <ele>-1.0</ele>
      </trkpt>
      <trkpt lat="43.879723" lon="10.314958">
        <time>1970-01-01T00:00:00+00:00</time>
        <ele>-3.0</ele>
      </trkpt>
      <trkpt lat="43.87882" lon="10.316717">
        <time>1970-01-01T00:00:00+00:00</time>
        <ele>-2.0</ele>
      </trkpt>
      <trkpt lat="43.878653" lon="10.317014">
        <time>1970-01-01T00:00:00+00:00</time>
        <ele>-2.0</ele>
      </trkpt>
      <trkpt lat="43.879081" lon="10.317795">
        <time>1970-01-01T00:00:00+00:00</time>
        <ele>-3.0</ele>
      </trkpt>
      <trkpt lat="43.879097" lon="10.317876">
        <time>1970-01-01T00:00:00+00:00</time>
        <ele>-3.0</ele>
      </trkpt>
      <trkpt lat="43.87908" lon="10.317994">
        <time>1970-01-01T00:00:00+00:00</time>
        <ele>-2.0</ele>
      </trkpt>
      <trkpt lat="43.87869" lon="10.319174">
        <time>1970-01-01T00:00:00+00:00</time>
        <ele>-2.0</ele>
      </trkpt>
      <trkpt lat="43.878442" lon="10.319834">
        <time>1970-01-01T00:00:00+00:00</time>
        <ele>-3.0</ele>
      </trkpt>
      <trkpt lat="43.878354" lon="10.320029">
        <time>1970-01-01T00:00:00+00:00</time>
        <ele>-3.0</ele>
      </trkpt>
      <trkpt lat="43.878129" lon="10.320317">
        <time>1970-01-01T00:00:00+00:00</time>
        <ele>-3.0</ele>
      </trkpt>
      <trkpt lat="43.877847" lon="10.320625">
        <time>1970-01-01T00:00:00+00:00</time>
        <ele>-3.0</ele>
      </trkpt>
      <trkpt lat="43.877767" lon="10.320757">
        <time>1970-01-01T00:00:00+00:00</time>
        <ele>-3.0</ele>
      </trkpt>
      <trkpt lat="43.87758" lon="10.32118">
        <time>1970-01-01T00:00:00+00:00</time>
        <ele>-3.0</ele>
      </trkpt>
      <trkpt lat="43.877469" lon="10.321382">
        <time>1970-01-01T00:00:00+00:00</time>
        <ele>-3.0</ele>
      </trkpt>
      <trkpt lat="43.877203" lon="10.32172">
        <time>1970-01-01T00:00:00+00:00</time>
        <ele>-2.0</ele>
      </trkpt>
      <trkpt lat="43.877112" lon="10.321862">
        <time>1970-01-01T00:00:00+00:00</time>
        <ele>-2.0</ele>
      </trkpt>
      <trkpt lat="43.87711" lon="10.321934">
        <time>1970-01-01T00:00:00+00:00</time>
        <ele>-2.0</ele>
      </trkpt>
      <trkpt lat="43.877127" lon="10.321998">
        <time>1970-01-01T00:00:00+00:00</time>
        <ele>-2.0</ele>
      </trkpt>
      <trkpt lat="43.877334" lon="10.322406">
        <time>1970-01-01T00:00:00+00:00</time>
        <ele>-1.0</ele>
      </trkpt>
      <trkpt lat="43.877482" lon="10.322615">
        <time>1970-01-01T00:00:00+00:00</time>
        <ele>-1.0</ele>
      </trkpt>
      <trkpt lat="43.877493" lon="10.322656">
        <time>1970-01-01T00:00:00+00:00</time>
        <ele>0.0</ele>
      </trkpt>
      <trkpt lat="43.877485" lon="10.322696">
        <time>1970-01-01T00:00:00+00:00</time>
        <ele>0.0</ele>
      </trkpt>
      <trkpt lat="43.877388" lon="10.322795">
        <time>1970-01-01T00:00:00+00:00</time>
        <ele>0.0</ele>
      </trkpt>
      <trkpt lat="43.87731" lon="10.322834">
        <time>1970-01-01T00:00:00+00:00</time>
        <ele>0.0</ele>
      </trkpt>
      <trkpt lat="43.877382" lon="10.322996">
        <time>1970-01-01T00:00:00+00:00</time>
        <ele>0.0</ele>
      </trkpt>
      <trkpt lat="43.877382" lon="10.322996">
        <time>1970-01-01T00:00:00+00:00</time>
        <ele>0.0</ele>
      </trkpt>
      <trkpt lat="43.87731" lon="10.322834">
        <time>1970-01-01T00:00:00+00:00</time>
        <ele>0.0</ele>
      </trkpt>
      <trkpt lat="43.877388" lon="10.322795">
        <time>1970-01-01T00:00:00+00:00</time>
        <ele>0.0</ele>
      </trkpt>
      <trkpt lat="43.877485" lon="10.322696">
        <time>1970-01-01T00:00:00+00:00</time>
        <ele>0.0</ele>
      </trkpt>
      <trkpt lat="43.877493" lon="10.322656">
        <time>1970-01-01T00:00:00+00:00</time>
        <ele>0.0</ele>
      </trkpt>
      <trkpt lat="43.877482" lon="10.322615">
        <time>1970-01-01T00:00:00+00:00</time>
        <ele>-1.0</ele>
      </trkpt>
      <trkpt lat="43.877334" lon="10.322406">
        <time>1970-01-01T00:00:00+00:00</time>
        <ele>-1.0</ele>
      </trkpt>
      <trkpt lat="43.877127" lon="10.321998">
        <time>1970-01-01T00:00:00+00:00</time>
        <ele>-2.0</ele>
      </trkpt>
      <trkpt lat="43.87711" lon="10.321934">
        <time>1970-01-01T00:00:00+00:00</time>
        <ele>-2.0</ele>
      </trkpt>
      <trkpt lat="43.877112" lon="10.321862">
        <time>1970-01-01T00:00:00+00:00</time>
        <ele>-2.0</ele>
      </trkpt>
      <trkpt lat="43.877203" lon="10.32172">
        <time>1970-01-01T00:00:00+00:00</time>
        <ele>-2.0</ele>
      </trkpt>
      <trkpt lat="43.877469" lon="10.321382">
        <time>1970-01-01T00:00:00+00:00</time>
        <ele>-3.0</ele>
      </trkpt>
      <trkpt lat="43.87758" lon="10.32118">
        <time>1970-01-01T00:00:00+00:00</time>
        <ele>-3.0</ele>
      </trkpt>
      <trkpt lat="43.877767" lon="10.320757">
        <time>1970-01-01T00:00:00+00:00</time>
        <ele>-3.0</ele>
      </trkpt>
      <trkpt lat="43.877847" lon="10.320625">
        <time>1970-01-01T00:00:00+00:00</time>
        <ele>-3.0</ele>
      </trkpt>
      <trkpt lat="43.878129" lon="10.320317">
        <time>1970-01-01T00:00:00+00:00</time>
        <ele>-3.0</ele>
      </trkpt>
      <trkpt lat="43.878354" lon="10.320029">
        <time>1970-01-01T00:00:00+00:00</time>
        <ele>-3.0</ele>
      </trkpt>
      <trkpt lat="43.878442" lon="10.319834">
        <time>1970-01-01T00:00:00+00:00</time>
        <ele>-3.0</ele>
      </trkpt>
      <trkpt lat="43.87869" lon="10.319174">
        <time>1970-01-01T00:00:00+00:00</time>
        <ele>-2.0</ele>
      </trkpt>
      <trkpt lat="43.87908" lon="10.317994">
        <time>1970-01-01T00:00:00+00:00</time>
        <ele>-2.0</ele>
      </trkpt>
      <trkpt lat="43.879097" lon="10.317876">
        <time>1970-01-01T00:00:00+00:00</time>
        <ele>-3.0</ele>
      </trkpt>
      <trkpt lat="43.879081" lon="10.317795">
        <time>1970-01-01T00:00:00+00:00</time>
        <ele>-3.0</ele>
      </trkpt>
      <trkpt lat="43.878653" lon="10.317014">
        <time>1970-01-01T00:00:00+00:00</time>
        <ele>-2.0</ele>
      </trkpt>
      <trkpt lat="43.87882" lon="10.316717">
        <time>1970-01-01T00:00:00+00:00</time>
        <ele>-2.0</ele>
      </trkpt>
      <trkpt lat="43.879723" lon="10.314958">
        <time>1970-01-01T00:00:00+00:00</time>
        <ele>-3.0</ele>
      </trkpt>
      <trkpt lat="43.880196" lon="10.315708">
        <time>1970-01-01T00:00:00+00:00</time>
        <ele>-1.0</ele>
      </trkpt>
      <trkpt lat="43.880246" lon="10.315788">
        <time>1970-01-01T00:00:00+00:00</time>
        <ele>0.0</ele>
      </trkpt>
      <trkpt lat="43.880418" lon="10.315261">
        <time>1970-01-01T00:00:00+00:00</time>
        <ele>0.0</ele>
      </trkpt>
      <trkpt lat="43.880525" lon="10.314936">
        <time>1970-01-01T00:00:00+00:00</time>
        <ele>-1.0</ele>
      </trkpt>
      <trkpt lat="43.880684" lon="10.314452">
        <time>1970-01-01T00:00:00+00:00</time>
        <ele>-1.0</ele>
      </trkpt>
      <trkpt lat="43.881079" lon="10.313263">
        <time>1970-01-01T00:00:00+00:00</time>
        <ele>0.0</ele>
      </trkpt>
    </trkseg>
  </trk>
</gpx>
